Regional Weather Roundup
Issued by NWS Upton, NY

Current Version | Previous Version | Graphics & Text | Print | Product List | Glossary Off
Versions: 1 2 3 4 5 6 7 8 9 10 11 12 13 14 15 16 17 18 19 20 21 22 23 24 25 26 27 28 29 30 31 32 33 34 35 36 37 38 39 40 41 42 43 44 45 46 47 48 49 50

760
ASUS41 KOKX 061108
RWROKX

REGIONAL WEATHER ROUNDUP
NATIONAL WEATHER SERVICE NEW YORK NY
600 AM EST TUE DEC 06 2016

NOTE: "FAIR" INDICATES FEW OR NO CLOUDS BELOW 12,000 FEET WITH NO
SIGNIFICANT WEATHER AND/OR OBSTRUCTIONS TO VISIBILITY.

NYZ071-072-176-178-NJZ106-104-061200-
NEW YORK CITY METRO AREA

CITY           SKY/WX    TMP DP  RH WIND       PRES   REMARKS
Central Park   CLEAR     39  27  62 CALM      30.15R
Wall St Helipt SUNNY     42  29  59 VRB5      30.15R
Bronx Bot Gard NOT AVBL
LaGuardia APRT PTCLDY    42  29  59 NW7       30.13R
Kennedy INTL   MOCLDY    38  27  64 CALM      30.15R
Breezy Point     N/A     39 N/A N/A NW6         N/A  WCI  35
Newark/Liberty MOCLDY    39  28  64 CALM      30.14R
Teterboro      CLEAR     33  27  78 CALM      30.13R
$$

NYZ177-179-078>081-061200-
LONG ISLAND NEW YORK

CITY           SKY/WX    TMP DP  RH WIND       PRES   REMARKS
Jones Beach      N/A     37 N/A N/A N5          N/A  WCI  34
Matinecock PT  NOT AVBL
Farmingdale    CLEAR     35  29  78 N3        30.13R
MacArthur/ISP  PTCLDY    30  27  88 CALM      30.12R
Shirley        CLEAR     29  27  92 CALM      30.13R
Westhampton    CLEAR     24  21  88 CALM      30.14R
Southampton    NOT AVBL
Bridgehampton  NOT AVBL
East Hampton     N/A     33  29  85 NW3       30.11S
Montauk          N/A     43  32  65 N14       30.12R
$$

NYZ052-065-067-061200-
HUDSON VALLEY

CITY           SKY/WX    TMP DP  RH WIND       PRES   REMARKS
White Plains   CLEAR     32  27  81 NW5       30.11R WCI  27
Newburgh       CLEAR     25  25 100 CALM      30.13R
Montgomery     CLEAR     27  24  89 CALM      30.11R
Poughkeepsie   CLEAR     25  23  92 CALM      30.12S
Albany         PTCLDY    34  30  85 W5        30.12R WCI  30
$$

NJZ001-105-106-008-010-013-015-019>022-104-061200-
NEW JERSEY

CITY           SKY/WX    TMP DP  RH WIND       PRES   REMARKS
Newark/Liberty MOCLDY    39  28  64 CALM      30.14R
Teterboro      CLEAR     33  27  78 CALM      30.13R
Caldwell       CLEAR     28  26  92 CALM      30.15R
Somerville     CLOUDY    24  21  88 CALM      30.14R
Linden           N/A     34  29  81 CALM      30.15R
Sussex         CLEAR     24  22  91 CALM      30.12S
Andover          N/A     25  23  92 CALM      30.14R
Trenton        CLOUDY    32  27  81 N6        30.13R WCI  26
Millville      CLOUDY    39  32  76 NE3       30.12S
Atlantic City  CLOUDY    36  30  79 N6        30.12S WCI  31
Wrightstown    MOCLDY    34  28  80 N5        30.10S WCI  30
Toms River     MOCLDY    31  28  89 N6        30.13F WCI  25
Belmar         PTCLDY    30  28  92 NW3       30.14R
$$

PAZ047>061-062-071-061200-
EASTERN PENNSYLVANIA

CITY           SKY/WX    TMP DP  RH WIND       PRES   REMARKS
Philadelphia   CLOUDY    38  29  70 N6        30.13F WCI  33
Allentown      CLOUDY    27  24  89 CALM      30.13S
Scranton       CLEAR     26  24  92 S3        30.11S
$$

CTZ002-004>006-009-010-012-RIZ004-006-007-MAZ004-011-015-061200-
SOUTHERN NEW ENGLAND
 IN CT

CITY           SKY/WX    TMP DP  RH WIND       PRES   REMARKS
Bradley INTL   CLEAR     28  25  88 SW3       30.11R
Hartford       CLEAR     29  27  92 CALM      30.12S
Danbury        CLEAR     25  23  92 CALM      30.12S
Wtrbury/Oxford CLEAR     27  21  80 CALM      30.10S
Bridgeport     NOT AVBL
Meriden        CLEAR     26  22  84 CALM      30.12S
New Haven      PTCLDY    35  30  82 W6        30.12S WCI  30
Chester          N/A     34  28  80 CALM      30.10S
Groton         CLEAR     31  28  89 NE7       30.11S WCI  24
Wilimantic     CLEAR     26  23  88 CALM      30.12S

 IN RI

CITY           SKY/WX    TMP DP  RH WIND       PRES   REMARKS
Providence     CLEAR     34  28  79 CALM      30.11R
Block Island   CLEAR     41  32  70 NW9G18    30.11R
Westerly       CLEAR     30  24  78 CALM      30.12R
 IN MA

CITY           SKY/WX    TMP DP  RH WIND       PRES   REMARKS
Boston         NOT AVBL
Worcester      CLEAR     30  26  85 W7        30.08R WCI  23
Westfield      CLEAR     27  26  96 CALM      30.11R
Provincetown   PTCLDY    40  30  67 N21G28    30.09R WCI  30
Nantucket      CLEAR     39  30  70 NW18      30.07R WCI  30
$$

ANZ330-335-338-340-345-350-353-355-061200-
COASTAL MARINE OBSERVATIONS


STATION/POSITION TIME  SKY/WX   TEMP    WIND        PRES    VSBY  WAVE
                                AIR SEA DIR/SP/G                  HT/PER
                 (UTC)          (F)     (DEG/KT/KT) (MB)    (MI)  (FT/S)
NY HARB ENTRANCE 1050            45 53  350/ 10/ 12 1020.3          2/ 9
20 S FIRE ISLAND 1050            45 54  360/ 10/ 14 1020.1          3/ 9
GREAT SOUTH BAY  NOT AVBL
23 SSW MONTAUK P 1050            45 53  330/ 19/ 23 1019.7          3/ 4
15 E BARNEGAT LI 1030               53                N/A           3/ 9
HUDSON CANYON    0950            49 57              1019.0          5/ 5
KINGS POINT      1042            41 48              1020.0
EXECUTION ROCKS  1045            41     330/  8/  8   N/A
CENTRAL LI SOUND 1045            42 50  330/ 10/ 14   N/A           2/ 3
EASTERN LI SOUND NOT AVBL
ROBBINS REEF     1048            40     310/  4/  5 1020.9
$$


>>>>>>>>>>>>>>>>>>>>>>>>>>>> KEY <<<<<<<<<<<<<<<<<<<<<<<<<<<
>                                                          <
>     SKY/WX - Sky Condition/Present Weather               <
>     TMP    - Temperature in Fahrenheit                   <
>     DP     - Dew Point in Fahrenheit                     <
>     RH     - Relative Humidity in Percent                <
>     WIND   - Direction (from) and Speed in MPH           <
>     PRES   - Mean Sea Level Pressure (inches of Hg)      <
>     WCI    - Wind Chill Index                            <
>     VSB    - VISIBILITY IN MILES                         <
>     HX     - HEAT INDEX                                  <
>     TC     - TEMPERATURE IN CELSIUS                      <
>     VRB    - VARIABLE WIND DIRECTION                     <
>                                                          <
>>>>>>>>>>>>>>>>>>>>>>>>>>>> KEY <<<<<<<<<<<<<<<<<<<<<<<<<<<




USA.gov is the U.S. government's official web portal to all federal, state and local government web resources and services.